Temperature
22 22 21 21 22 22 22 23 23 23 24 23 23 23 22 21 20 18 18 18 18 17 17 17 17 17 17 17 17 17 17 17 17 17 17 17 17 17 17 17 17 17 17 17 17 17 17 17 17
22 22 22 22 22 22 22 23 23 23 23 23 23 23 22 20 19 18 18 18 18 17 17 17 17 17 17 16 17 17 17 17 17 17 17 17 17 17 17 17 17 17 17 17 17 17 17 17 17
22 22 23 23 23 23 22 23 23 24 23 23 23 22 21 20 19 18 18 18 17 17 17 17 17 17 17 16 16 16 17 17 17 17 17 17 17 17 17 17 17 17 17 17 17 17 17 17 17
22 23 24 23 23 23 23 24 24 24 24 23 23 21 20 19 19 18 18 18 17 17 17 17 17 17 17 16 16 16 17 17 17 17 17 17 17 17 17 17 17 17 17 17 17 17 17 17 17
23 24 23 23 23 24 24 24 24 24 23 23 22 21 19 18 18 18 18 18 17 17 17 17 17 17 17 17 16 17 17 17 17 17 17 17 17 17 17 17 17 17 17 17 17 17 17 17 17
24 25 23 23 23 24 25 24 24 24 23 23 22 21 19 18 18 18 18 18 18 17 17 17 17 17 17 17 17 17 17 17 17 17 17 16 17 17 17 17 17 17 17 17 17 17 17 17 17
24 24 23 23 23 23 24 24 24 24 23 23 22 21 19 18 18 18 18 18 18 17 17 17 17 17 17 17 17 17 16 16 16 16 16 16 16 17 17 17 17 17 17 17 17 17 17 17 17
24 24 24 23 23 23 24 24 24 23 23 22 22 21 19 18 18 18 18 18 18 18 17 17 17 17 17 17 17 17 16 16 16 16 16 16 16 16 16 16 16 17 17 17 17 17 17 17 16
25 24 23 23 23 23 24 24 23 23 23 22 21 20 19 19 18 18 18 18 18 18 18 17 17 17 17 17 17 17 16 16 16 16 16 16 16 16 16 16 16 16 16 16 16 16 16 16 16
25 23 24 25 25 24 24 24 24 23 22 22 21 20 19 19 19 19 18 18 18 18 18 18 18 17 17 17 17 17 16 16 16 16 16 16 16 16 16 16 16 16 16 16 16 16 16 16 16
26 24 25 25 25 25 24 24 24 23 22 22 21 20 20 19 19 19 19 19 18 18 18 18 18 17 17 17 17 17 17 16 16 16 16 16 16 16 16 16 16 16 16 16 16 16 16 16 16
25 25 25 25 24 24 24 24 23 23 22 22 21 21 20 20 20 19 19 19 18 18 18 18 18 17 17 17 17 17 17 16 16 16 16 16 16 16 16 16 16 16 16 16 16 16 16 16 16
25 25 25 25 24 24 24 24 23 23 22 22 21 21 20 20 20 20 19 19 19 18 18 18 18 18 17 17 17 17 17 16 16 16 16 16 16 16 16 16 16 16 16 16 16 16 16 16 16
25 25 25 25 25 24 24 24 23 23 22 22 21 21 20 20 20 20 19 19 19 19 18 18 18 17 17 17 17 17 16 16 16 16 16 16 16 16 16 16 16 16 16 16 16 16 16 16 15
25 25 25 25 25 25 24 23 24 23 22 22 21 21 21 20 20 20 20 19 19 19 18 18 18 17 17 17 17 17 16 16 16 16 16 16 16 16 16 16 16 16 16 15 15 15 15 15 15
26 25 24 25 25 25 24 22 24 23 23 22 22 21 21 20 20 20 20 19 19 19 18 18 18 17 17 17 17 16 16 16 16 16 16 16 16 16 16 16 16 15 15 15 15 15 15 15 15
25 24 24 25 26 26 24 23 23 23 23 23 22 22 21 21 20 20 20 19 19 19 18 18 17 17 17 17 17 16 16 16 16 16 16 16 16 16 16 16 16 16 15 15 15 15 15 15 15
24 25 25 25 26 25 24 24 24 23 23 23 22 22 21 21 20 20 20 19 19 19 18 18 17 17 17 17 16 16 16 16 16 16 16 16 16 16 16 16 15 15 15 15 15 15 15 15 15
26 25 25 25 26 25 24 24 24 24 23 23 23 22 22 21 21 20 20 19 19 18 18 18 18 17 17 16 16 16 16 16 16 15 15 16 16 15 15 15 15 15 15 15 15 15 15 15 15
26 25 25 25 26 26 25 24 25 24 24 23 23 23 22 22 21 20 20 19 19 18 18 18 17 17 17 16 16 16 16 16 16 15 15 15 15 15 15 15 15 15 15 15 15 15 15 15 15
26 26 25 25 26 26 25 24 24 25 24 24 23 23 23 22 21 20 20 19 19 18 18 18 17 17 16 16 16 16 16 16 16 15 15 15 15 15 15 15 15 15 15 15 15 15 15 15 15
25 26 26 25 25 24 25 23 24 24 24 24 23 23 23 22 21 21 20 19 19 18 18 17 17 17 16 16 16 16 16 16 15 15 15 15 15 15 15 15 15 15 15 15 15 15 15 15 15
25 26 26 25 25 24 25 24 24 25 23 23 23 23 23 22 21 21 20 19 19 18 18 17 17 17 16 16 16 16 16 15 15 15 15 15 15 15 15 15 15 15 15 15 15 15 15 14 14
26 26 26 25 25 23 25 25 24 24 24 24 24 23 22 22 21 20 20 19 18 18 17 17 17 16 16 16 16 16 15 15 15 15 15 15 15 15 15 15 15 15 15 15 15 15 15 14 14
26 24 23 23 23 24 26 25 24 25 25 25 24 23 22 22 21 20 19 19 18 18 17 17 17 16 16 16 16 16 15 15 15 15 15 15 15 15 14 14 14 15 15 15 15 14 14 14 14
25 25 23 22 23 24 25 25 24 25 25 25 24 23 22 21 21 20 19 18 18 17 17 17 17 16 16 16 16 16 16 15 15 15 15 15 15 15 15 14 14 14 14 14 14 14 14 14 14
25 25 25 24 24 24 25 25 24 25 25 24 24 23 22 21 21 20 19 18 18 17 17 17 16 16 16 16 16 16 16 15 15 15 15 15 15 15 14 14 14 14 14 14 14 14 14 14 14
25 25 25 24 23 23 24 24 23 23 23 24 24 23 22 22 21 20 19 18 18 17 17 17 16 16 16 16 16 16 15 15 15 15 15 15 15 15 14 14 14 14 14 14 14 14 14 14 14
25 25 25 24 24 23 23 23 25 24 24 24 23 23 22 21 21 20 19 19 18 17 17 17 16 16 16 16 16 15 15 15 15 15 15 15 15 14 14 14 14 14 14 14 14 14 14 14 14
25 25 25 23 23 24 23 23 25 24 24 24 23 23 22 21 21 20 19 19 18 18 17 17 16 16 16 16 15 15 15 15 15 15 15 15 14 14 14 14 14 14 14 14 14 14 14 14 14
Wind_Speed
10 11 7 3 2 1 7 8 9 8 8 9 9 10 12 12 8 7 2 5 7 8 11 11 10 9 9 9 9 9 10 10 10 11 11 12 12 12 11 11 10 10 9 9 9 10 9 9 9
10 7 4 3 1 3 7 8 10 9 6 6 9 12 13 12 10 7 4 4 7 9 11 11 9 9 9 9 9 10 10 10 10 10 11 11 11 11 11 10 10 10 10 9 10 10 9 9 9
11 8 4 1 5 8 7 8 8 8 6 6 8 11 9 7 9 5 4 5 8 10 12 10 9 9 9 9 9 9 10 10 10 10 10 11 11 10 10 10 10 10 10 10 10 10 9 9 9
6 4 2 3 10 10 8 6 6 7 7 8 9 9 9 9 7 7 5 6 8 9 11 10 9 9 9 9 9 10 10 10 10 10 10 10 10 10 10 10 10 10 10 11 11 10 10 10 9
4 2 2 6 10 9 8 7 6 8 9 11 12 11 9 8 9 8 6 6 7 8 10 11 9 8 9 9 9 9 9 9 9 9 9 9 10 10 10 10 10 10 10 11 11 10 10 10 9
3 2 2 6 9 8 8 8 8 9 9 9 10 11 9 8 8 6 6 6 6 6 8 10 10 9 9 9 9 9 9 9 9 9 8 8 9 9 10 10 10 10 11 11 11 10 10 10 9
2 2 4 8 7 7 7 8 8 7 8 8 8 9 7 8 6 5 5 5 4 5 6 8 10 9 9 9 8 8 8 8 8 8 8 8 9 9 10 11 11 11 11 11 10 10 10 9 8
2 1 5 7 7 7 6 6 6 8 8 6 6 6 6 7 7 6 5 5 5 5 5 5 6 8 10 9 8 7 7 7 6 6 6 7 8 9 9 10 10 10 10 10 10 10 10 9 7
1 2 5 6 5 6 6 6 6 7 8 10 10 10 9 9 8 6 5 5 4 6 4 4 5 6 6 8 8 7 7 6 5 5 5 5 6 8 9 10 10 10 10 9 8 8 8 7 5
2 4 7 7 7 6 6 6 5 6 8 9 10 10 10 8 7 6 6 5 5 5 4 4 5 5 6 7 6 5 5 4 3 3 4 4 6 9 10 10 9 9 8 7 5 4 4 4 3
6 6 7 8 8 7 6 6 6 6 5 6 8 10 8 7 6 5 6 5 5 5 4 5 4 5 5 4 5 4 4 3 4 4 5 5 6 7 8 7 6 6 6 4 4 3 3 5 5
7 7 7 7 7 6 5 6 7 7 5 6 8 9 8 7 6 5 5 5 5 5 5 4 4 5 5 5 3 3 3 3 4 5 6 5 3 4 4 4 5 5 5 5 4 5 7 7 7
7 6 7 6 5 5 5 5 5 6 6 7 8 7 6 5 6 5 5 5 6 6 5 5 5 5 4 4 2 4 3 4 5 4 5 6 4 3 4 4 4 5 6 5 4 5 6 6 8
6 6 6 5 4 4 4 4 4 5 6 7 7 6 6 5 4 4 5 5 5 6 6 5 4 5 5 4 3 3 4 4 5 4 5 7 5 3 4 4 4 5 6 5 5 6 5 5 6
6 5 5 5 4 4 2 2 3 6 6 6 6 6 6 5 4 4 5 4 5 5 7 6 4 5 5 4 3 3 4 5 4 5 6 6 6 6 5 4 3 4 6 7 7 6 5 4 4
6 5 4 4 4 3 2 1 4 6 6 6 6 6 6 6 5 4 5 5 5 5 7 6 5 5 5 4 3 3 5 5 5 5 6 6 7 8 6 3 2 5 6 5 3 3 4 4 4
5 4 3 4 5 3 3 1 5 5 5 6 6 6 7 6 6 5 5 5 5 6 6 6 5 5 5 4 3 3 4 4 4 5 5 5 5 6 6 3 3 5 4 3 3 4 3 3 3
2 1 1 2 4 3 3 2 6 6 6 6 6 7 6 7 6 6 6 5 5 5 6 6 4 5 5 3 3 3 3 3 4 4 3 4 5 5 5 3 3 5 3 3 3 3 2 2 2
4 3 2 1 2 3 3 3 6 7 6 5 6 7 7 6 8 7 7 6 5 5 5 5 4 5 4 3 2 2 2 2 2 2 3 4 4 4 3 3 3 3 2 3 3 3 2 2 2
5 4 4 1 2 3 4 5 5 8 7 5 4 5 8 8 8 8 7 7 5 5 4 5 4 5 4 2 2 2 2 2 2 2 4 4 4 3 2 2 2 2 2 2 2 3 1 1 1
6 5 4 3 3 6 6 5 5 8 7 6 4 3 5 7 8 8 8 7 6 5 5 4 4 5 4 4 2 2 2 2 2 2 2 3 4 4 3 3 2 2 2 2 2 2 2 0 1
4 4 5 6 6 5 5 3 3 8 8 8 6 4 4 5 6 7 7 7 6 5 5 5 4 4 4 4 3 2 2 1 1 1 1 1 2 2 2 2 3 2 1 2 2 2 2 1 1
3 3 7 9 8 8 7 4 2 7 7 7 7 5 5 6 6 7 6 6 6 6 5 4 4 4 3 3 3 1 1 1 1 2 2 1 1 1 1 2 2 1 1 1 1 2 1 1 0
4 6 9 9 7 7 7 4 2 4 5 6 7 7 6 7 6 7 6 6 6 6 5 4 4 4 3 3 3 3 2 1 1 1 2 1 1 0 1 1 1 1 1 1 2 1 1 0 1
6 5 4 3 4 3 2 2 2 7 6 5 5 6 7 7 7 7 7 7 6 6 5 4 5 4 3 3 3 3 2 2 2 1 2 2 2 1 1 1 1 1 1 2 2 1 1 1 1
5 6 5 4 4 3 1 1 5 8 7 6 5 5 7 7 7 7 8 7 6 6 5 4 4 4 3 3 2 2 3 2 1 1 1 2 2 2 2 2 1 1 1 1 1 1 0 1 1
5 5 6 7 9 6 2 3 6 6 6 5 5 5 6 6 7 8 8 8 6 6 5 4 4 4 4 3 3 2 2 2 2 2 1 1 2 2 2 2 2 2 1 1 1 1 0 0 1
7 7 5 4 4 5 2 2 4 6 4 4 4 4 5 6 7 8 8 8 7 6 5 5 3 3 3 2 2 2 1 2 2 2 2 2 2 2 2 2 3 2 1 1 1 1 1 2 1
6 7 5 5 5 4 3 2 4 6 4 2 3 4 4 5 6 7 7 7 7 6 6 5 4 3 3 3 3 3 3 2 3 3 3 2 2 3 3 2 2 2 2 2 2 2 1 1 1
6 7 7 5 5 5 5 0 5 6 5 3 2 3 4 4 5 6 6 6 6 6 6 5 4 4 3 3 3 3 3 3 3 3 3 3 2 3 3 3 1 2 2 2 2 2 2 1 1
Wind_Direction
262 246 242 256 250 95 63 61 60 51 54 51 50 62 67 54 52 82 80 51 71 86 94 78 61 56 53 54 54 54 56 59 61 62 60 59 59 59 62 64 65 67 69 69 67 65 63 64 63
272 257 253 241 250 87 69 64 63 60 63 62 60 63 70 64 72 90 80 55 72 79 82 75 67 61 58 58 58 58 60 63 63 64 62 60 62 63 65 66 69 71 71 69 68 67 66 66 64
267 260 263 283 38 62 73 70 77 77 70 71 70 59 56 63 72 90 94 83 80 81 85 84 77 69 64 62 64 66 64 64 63 62 60 60 63 67 67 68 71 74 77 74 72 70 72 71 68
266 257 247 67 66 64 75 85 89 84 70 69 77 75 66 56 78 96 91 84 87 92 95 97 88 79 72 70 68 67 66 66 66 64 62 63 65 66 68 73 77 79 83 81 78 76 73 73 70
248 258 109 85 78 72 69 75 79 77 72 70 76 89 87 76 82 86 75 72 84 96 101 107 104 93 83 77 74 71 68 68 68 69 68 66 68 69 70 76 82 84 86 86 82 79 72 66 63
273 244 108 92 86 79 73 74 75 82 84 85 89 93 89 90 84 85 81 72 74 92 110 115 118 111 100 88 81 79 78 75 73 75 74 74 77 76 74 77 81 84 86 87 86 82 76 69 63
305 24 89 97 91 81 68 65 72 76 71 67 88 94 101 100 100 103 94 85 81 86 101 122 135 127 118 105 99 95 93 89 87 86 86 86 86 84 83 84 88 88 88 87 87 85 83 80 73
310 37 97 88 87 80 72 68 65 76 79 76 74 92 107 115 119 113 104 97 84 79 82 95 112 126 133 128 118 114 113 114 110 105 107 108 105 97 95 93 93 93 92 93 92 92 91 86 78
261 83 82 84 88 92 92 88 81 80 87 80 76 87 104 121 123 121 107 98 86 75 69 77 88 90 99 116 124 137 141 146 143 144 151 143 125 115 107 102 104 103 100 99 99 103 103 96 82
84 79 82 86 95 101 98 93 99 92 86 89 92 99 115 126 123 118 112 110 105 91 87 86 81 83 76 79 97 103 109 123 124 117 126 131 109 98 107 112 114 117 116 113 118 123 114 106 86
80 82 80 82 84 92 93 86 84 89 88 97 111 121 122 128 129 121 115 112 100 94 79 87 82 82 82 79 83 76 80 83 70 65 75 79 98 112 119 131 130 129 127 112 107 103 90 85 81
94 91 91 95 95 94 88 81 74 73 81 97 109 118 129 136 130 124 116 114 114 100 82 82 87 86 83 82 83 87 73 66 62 46 69 66 60 76 90 97 103 104 96 82 70 72 69 63 65
101 103 101 103 111 107 99 92 90 89 100 109 114 121 121 121 124 123 116 114 114 112 101 75 72 75 81 76 70 82 71 68 73 43 63 79 69 66 81 87 93 90 87 84 69 68 64 56 54
113 114 122 130 125 126 116 111 116 113 123 125 128 132 129 120 124 129 113 111 115 116 105 96 87 86 80 77 68 81 82 79 77 55 51 76 78 75 77 74 83 85 87 84 81 75 69 65 64
142 151 151 161 163 146 129 109 121 133 143 141 141 140 133 133 143 129 121 119 111 114 105 89 79 78 77 75 71 79 76 68 61 48 40 59 78 75 74 57 65 81 84 77 74 66 64 70 71
196 186 170 169 177 159 197 174 122 137 154 153 156 150 148 150 154 136 135 119 110 106 101 94 83 77 68 60 56 73 84 73 63 52 40 42 64 74 79 71 61 85 84 82 76 70 59 53 52
217 214 171 167 180 171 194 162 141 159 173 167 169 164 161 161 155 139 129 116 112 109 107 103 89 89 82 70 57 50 80 80 76 62 45 38 61 78 81 75 80 79 80 73 73 73 71 66 59
246 251 210 174 172 191 210 194 164 178 191 181 176 173 169 164 156 146 132 122 112 107 108 106 102 88 85 65 58 52 55 68 70 72 61 45 51 70 88 96 89 87 80 79 80 89 78 85 67
289 298 289 232 178 226 240 227 185 176 188 191 185 177 169 164 157 147 141 136 128 121 116 116 116 102 92 75 69 71 64 76 69 66 63 59 57 69 86 85 84 89 94 103 99 93 72 70 82
273 271 272 243 223 253 256 246 207 173 183 189 195 178 167 163 156 146 144 139 138 127 127 120 110 107 108 106 95 99 92 94 89 62 56 49 52 44 82 98 90 103 100 93 93 94 68 37 75
265 278 284 292 275 256 253 253 207 171 170 169 192 187 159 155 156 154 154 148 143 138 135 132 127 121 118 109 83 72 60 57 69 69 53 41 50 48 47 77 96 113 127 128 125 116 113 354 328
276 320 309 291 277 264 242 264 207 170 170 171 177 182 163 148 143 145 150 148 149 143 142 136 128 122 119 116 107 109 111 108 107 119 112 85 62 56 45 79 102 110 117 139 170 143 152 163 284
303 312 285 275 275 275 257 249 207 157 166 169 167 166 160 145 139 137 137 138 140 135 133 131 131 120 117 130 138 130 99 128 108 111 113 108 76 60 47 80 96 117 125 136 119 87 88 138 168
290 277 268 257 260 261 246 232 182 155 157 161 161 163 159 145 133 133 127 122 121 123 131 140 134 123 133 150 148 148 149 141 120 130 140 155 144 122 61 89 96 128 130 128 122 123 107 76 31
247 270 279 250 226 242 209 208 127 107 98 104 136 149 149 141 142 143 136 132 126 133 146 150 142 140 154 172 160 166 169 167 165 162 167 169 155 169 184 105 79 74 82 97 124 146 167 173 166
254 257 279 302 303 318 274 172 101 101 96 97 110 128 139 144 149 147 143 141 142 145 150 158 156 154 169 184 186 184 168 170 162 189 160 165 159 168 152 128 121 101 110 104 109 116 220 186 165
271 266 281 291 294 286 229 125 121 120 117 114 119 126 142 144 149 148 146 150 154 156 156 167 163 170 179 189 192 202 175 156 176 200 191 181 171 164 146 161 159 138 114 112 113 125 326 50 78
261 292 292 276 301 294 270 175 142 135 117 124 128 136 147 150 149 147 151 156 161 160 163 165 165 174 176 187 184 187 201 194 193 197 208 193 175 165 163 180 162 156 161 150 136 146 144 99 99
229 246 259 279 279 291 308 36 86 116 114 106 116 125 129 136 143 147 152 157 159 159 164 165 172 177 176 190 188 183 201 220 202 203 201 189 175 174 172 187 173 160 173 163 153 168 157 153 178
254 264 264 269 284 285 289 70 109 116 110 97 79 108 122 132 138 145 147 153 157 162 166 170 174 175 180 194 201 188 186 217 215 200 197 194 184 183 180 168 173 176 186 177 177 181 183 198 196
Height
1505 1505 1505 1507 1508 1512 1514 1512 1509 1510 1510 1512 1512 1512 1516 1519 1524 1534 1534 1531 1531 1530 1528 1527 1526 1526 1525 1525 1525 1524 1524 1524 1524 1524 1524 1523 1523 1523 1523 1523 1524 1524 1524 1525 1525 1526 1527 1527 1528
1505 1506 1508 1507 1510 1518 1520 1513 1513 1513 1514 1514 1514 1516 1518 1523 1527 1531 1532 1532 1532 1531 1529 1528 1527 1527 1526 1526 1525 1525 1525 1525 1525 1525 1525 1525 1525 1525 1524 1525 1525 1525 1525 1526 1526 1527 1527 1528 1529
1506 1507 1508 1506 1509 1517 1520 1515 1514 1514 1515 1515 1517 1519 1523 1527 1529 1531 1533 1533 1532 1531 1530 1529 1529 1528 1527 1527 1527 1526 1526 1526 1526 1526 1526 1526 1526 1526 1526 1526 1526 1526 1527 1527 1527 1528 1528 1529 1530
1508 1508 1507 1509 1515 1514 1514 1514 1514 1515 1516 1516 1518 1523 1528 1530 1531 1533 1533 1534 1533 1532 1531 1530 1530 1529 1529 1528 1528 1528 1527 1527 1527 1527 1527 1527 1527 1527 1527 1527 1527 1527 1528 1528 1529 1529 1530 1530 1531
1508 1508 1510 1515 1516 1514 1513 1514 1515 1516 1517 1519 1521 1526 1530 1533 1533 1533 1534 1534 1534 1534 1533 1532 1531 1531 1530 1530 1529 1529 1529 1529 1529 1529 1529 1529 1529 1528 1528 1528 1528 1529 1529 1529 1530 1530 1531 1532 1532
1509 1506 1514 1520 1518 1515 1514 1516 1517 1518 1520 1521 1524 1527 1532 1534 1534 1534 1535 1535 1535 1535 1534 1533 1533 1532 1532 1531 1531 1530 1530 1530 1530 1530 1530 1530 1530 1530 1530 1530 1530 1530 1531 1531 1531 1532 1533 1533 1534
1510 1509 1515 1517 1520 1518 1517 1518 1519 1520 1521 1523 1525 1528 1533 1534 1535 1535 1536 1536 1536 1536 1535 1535 1534 1534 1533 1533 1533 1533 1532 1532 1532 1532 1532 1532 1532 1532 1532 1531 1532 1532 1532 1533 1533 1534 1535 1535 1536
1510 1511 1514 1517 1521 1522 1520 1520 1521 1522 1524 1526 1526 1529 1533 1535 1535 1536 1536 1537 1537 1537 1537 1537 1536 1536 1535 1535 1535 1535 1534 1534 1534 1534 1534 1534 1534 1534 1534 1534 1534 1534 1534 1535 1535 1536 1537 1537 1538
1510 1515 1520 1520 1521 1522 1521 1522 1523 1524 1525 1527 1529 1531 1533 1535 1536 1536 1537 1538 1538 1538 1538 1538 1538 1538 1538 1537 1537 1536 1536 1536 1536 1536 1536 1536 1536 1536 1536 1536 1536 1537 1537 1537 1538 1538 1539 1539 1540
1511 1518 1519 1516 1518 1520 1521 1522 1523 1525 1527 1529 1531 1533 1534 1536 1537 1537 1538 1538 1539 1539 1539 1539 1539 1539 1539 1539 1539 1538 1538 1538 1538 1538 1538 1538 1539 1539 1538 1538 1538 1539 1539 1539 1540 1540 1541 1541 1542
1513 1517 1516 1518 1519 1521 1522 1523 1524 1526 1528 1530 1532 1534 1535 1537 1538 1538 1539 1539 1540 1540 1541 1541 1540 1540 1540 1540 1540 1540 1540 1540 1540 1540 1540 1540 1540 1540 1540 1540 1540 1540 1541 1541 1541 1542 1542 1543 1543
1515 1517 1518 1520 1522 1523 1523 1524 1526 1527 1530 1531 1532 1534 1535 1537 1538 1538 1539 1540 1540 1541 1541 1541 1541 1541 1541 1541 1541 1541 1541 1541 1541 1541 1541 1542 1542 1542 1542 1542 1542 1543 1543 1543 1543 1543 1544 1544 1544
1517 1519 1521 1522 1523 1524 1525 1526 1528 1529 1531 1532 1533 1535 1536 1537 1538 1539 1540 1540 1541 1541 1542 1542 1542 1542 1542 1542 1542 1542 1543 1543 1543 1543 1543 1543 1543 1543 1543 1544 1544 1544 1545 1545 1545 1545 1545 1545 1546
1518 1520 1521 1523 1523 1524 1525 1526 1528 1530 1531 1533 1534 1535 1536 1537 1538 1539 1540 1540 1541 1542 1542 1543 1543 1543 1543 1543 1543 1543 1543 1544 1544 1544 1544 1544 1544 1544 1545 1545 1545 1545 1546 1546 1546 1546 1546 1547 1547
1519 1520 1521 1521 1522 1523 1525 1527 1527 1529 1531 1532 1534 1535 1536 1537 1538 1539 1540 1541 1541 1542 1542 1543 1544 1544 1544 1544 1544 1544 1545 1545 1545 1545 1545 1546 1546 1546 1546 1546 1546 1546 1547 1547 1547 1547 1548 1548 1548
1517 1520 1525 1521 1520 1522 1527 1532 1526 1528 1530 1531 1533 1534 1536 1537 1538 1539 1540 1541 1541 1542 1542 1543 1544 1544 1544 1545 1545 1545 1545 1546 1546 1546 1546 1547 1547 1547 1547 1547 1547 1547 1548 1548 1548 1548 1549 1549 1549
1519 1524 1524 1521 1517 1519 1523 1528 1525 1527 1528 1529 1531 1533 1534 1536 1537 1538 1539 1540 1541 1542 1543 1543 1544 1544 1544 1545 1545 1546 1546 1546 1546 1547 1547 1547 1547 1548 1548 1548 1548 1548 1548 1549 1549 1549 1550 1550 1550
1524 1521 1520 1521 1516 1517 1521 1523 1523 1524 1526 1527 1529 1530 1532 1534 1536 1537 1538 1540 1541 1542 1542 1543 1544 1544 1544 1545 1546 1546 1546 1547 1547 1547 1547 1547 1548 1548 1548 1548 1549 1549 1549 1550 1550 1550 1551 1551 1551
1514 1517 1520 1517 1514 1516 1519 1520 1519 1521 1523 1524 1526 1527 1529 1532 1534 1536 1537 1539 1540 1541 1542 1543 1543 1544 1544 1545 1545 1546 1546 1547 1547 1547 1548 1548 1548 1548 1548 1549 1549 1550 1550 1550 1551 1551 1551 1552 1552
1513 1518 1519 1515 1512 1514 1517 1517 1515 1517 1520 1522 1523 1525 1527 1529 1532 1534 1536 1538 1539 1541 1542 1542 1543 1544 1544 1544 1545 1546 1547 1547 1547 1547 1547 1548 1548 1548 1549 1549 1549 1550 1550 1551 1551 1552 1552 1553 1553
1514 1516 1516 1516 1513 1512 1515 1519 1513 1513 1516 1520 1522 1523 1525 1527 1530 1532 1535 1537 1538 1540 1541 1542 1543 1543 1544 1544 1545 1546 1546 1547 1547 1547 1547 1548 1548 1548 1548 1549 1549 1550 1550 1551 1551 1552 1552 1552 1553
1517 1511 1512 1514 1518 1520 1516 1529 1515 1510 1514 1517 1520 1522 1524 1526 1528 1531 1533 1535 1537 1539 1540 1541 1542 1543 1543 1544 1545 1545 1546 1547 1547 1547 1547 1547 1548 1548 1548 1549 1549 1550 1550 1551 1551 1552 1552 1553 1553
1513 1511 1512 1513 1515 1519 1514 1521 1516 1508 1514 1515 1517 1520 1523 1525 1527 1530 1532 1534 1536 1538 1539 1541 1542 1542 1543 1544 1544 1545 1546 1546 1547 1547 1547 1547 1548 1548 1548 1549 1549 1549 1550 1550 1551 1551 1552 1552 1552
1511 1512 1511 1510 1515 1527 1512 1517 1520 1510 1510 1511 1514 1518 1521 1524 1527 1529 1531 1534 1536 1537 1538 1540 1541 1542 1542 1543 1544 1545 1545 1546 1546 1547 1547 1547 1547 1548 1548 1548 1548 1549 1549 1550 1550 1551 1551 1551 1552
1512 1520 1530 1530 1531 1524 1503 1510 1515 1505 1505 1508 1512 1516 1519 1522 1525 1528 1530 1533 1534 1536 1537 1539 1540 1541 1542 1542 1543 1544 1544 1545 1545 1546 1546 1546 1547 1547 1547 1548 1548 1548 1549 1549 1549 1550 1550 1551 1551
1512 1517 1532 1540 1532 1521 1508 1512 1510 1503 1506 1509 1512 1515 1518 1521 1524 1527 1529 1531 1533 1535 1536 1537 1539 1540 1541 1541 1542 1542 1543 1544 1544 1545 1545 1546 1546 1546 1547 1547 1547 1548 1548 1548 1549 1549 1549 1550 1550
1514 1514 1510 1521 1519 1522 1515 1508 1508 1505 1507 1510 1512 1515 1517 1520 1523 1525 1528 1530 1532 1534 1535 1536 1537 1538 1539 1540 1541 1541 1542 1542 1543 1543 1544 1545 1545 1546 1546 1546 1546 1547 1547 1548 1548 1548 1548 1549 1549
1510 1510 1514 1521 1530 1531 1518 1512 1514 1510 1510 1510 1512 1514 1516 1519 1521 1524 1526 1529 1531 1532 1534 1535 1536 1537 1538 1538 1539 1539 1540 1541 1541 1542 1542 1543 1544 1544 1545 1545 1545 1546 1546 1547 1547 1547 1547 1547 1548
1511 1512 1513 1516 1517 1530 1532 1523 1503 1506 1508 1509 1511 1513 1515 1518 1520 1523 1525 1527 1529 1531 1532 1534 1535 1535 1536 1537 1537 1537 1538 1539 1539 1540 1541 1541 1542 1543 1543 1544 1544 1545 1545 1545 1546 1546 1546 1546 1546
1506 1508 1511 1523 1522 1517 1524 1523 1502 1504 1506 1509 1511 1513 1515 1517 1519 1522 1524 1526 1528 1529 1531 1532 1533 1534 1534 1535 1536 1536 1536 1537 1537 1538 1539 1540 1540 1541 1542 1542 1543 1543 1544 1544 1544 1544 1545 1545 1545